DW1347 Weather Reports


Display with metric or nautical units.
time (UTC)temp
F
wind
direction
speed
MPH
gust
MPH
rain 1hr
in
rain 24hr
in
rain mn
in
humidity
%
barometer
mb
20210618095945 60 230 0.0 0.0 0.00 0.00 0.00 39 1029.0
20210618095440 61 225 0.0 0.0 0.00 0.00 0.00 38 1028.8
20210618094936 61 216 0.0 1.0 0.00 0.00 0.00 36 1028.8
20210618094431 61 189 2.0 2.0 0.00 0.00 0.00 37 1028.8
20210618093925 61 213 0.0 1.0 0.00 0.00 0.00 36 1028.9
20210618093423 61 245 0.0 0.0 0.00 0.00 0.00 37 1029.0
20210618092920 61 227 0.0 0.0 0.00 0.00 0.00 38 1028.8
20210618092408 61 257 0.0 0.0 0.00 0.00 0.00 37 1028.9
20210618091907 61 225 0.0 0.0 0.00 0.00 0.00 37 1028.8
20210618091404 61 158 2.0 3.0 0.00 0.00 0.00 37 1028.6
20210618090858 61 245 0.0 0.0 0.00 0.00 0.00 38 1028.8
20210618090349 61 220 0.0 0.0 0.00 0.00 0.00 37 1028.8
20210618085842 61 239 0.0 0.0 0.00 0.00 0.00 37 1029.0
20210618085341 62 247 0.0 0.0 0.00 0.00 0.00 36 1028.9
20210618084839 62 201 1.0 1.0 0.00 0.00 0.00 36 1028.9
20210618084329 62 225 0.0 1.0 0.00 0.00 0.00 36 1028.6
20210618083826 62 214 0.0 0.0 0.00 0.00 0.00 37 1028.6
20210618083323 62 227 0.0 0.0 0.00 0.00 0.00 37 1028.8
20210618082816 61 225 0.0 0.0 0.00 0.00 0.00 37 1028.6
20210618082310 62 235 0.0 0.0 0.00 0.00 0.00 38 1029.0
20210618081809 62 221 0.0 0.0 0.00 0.00 0.00 37 1028.6
20210618081310 62 228 0.0 0.0 0.00 0.00 0.00 38 1028.9
20210618080806 62 235 0.0 0.0 0.00 0.00 0.00 37 1028.8
20210618080301 62 201 1.0 1.0 0.00 0.00 0.00 37 1028.8
20210618075759 63 233 0.0 0.0 0.00 0.00 0.00 36 1028.5
20210618075257 62 228 0.0 0.0 0.00 0.00 0.00 37 1028.6
20210618074756 63 258 0.0 0.0 0.00 0.00 0.00 37 1028.6
20210618074255 63 211 1.0 1.0 0.00 0.00 0.00 36 1028.9
20210618073752 64 240 0.0 0.0 0.00 0.00 0.00 35 1029.0
20210618073247 64 232 0.0 0.0 0.00 0.00 0.00 36 1028.9
20210618072744 64 238 0.0 0.0 0.00 0.00 0.00 38 1029.0
20210618072240 66 245 0.0 0.0 0.00 0.00 0.00 34 1028.9
20210618071736 67 204 2.0 2.0 0.00 0.00 0.00 31 1029.0
20210618071234 65 219 0.0 0.0 0.00 0.00 0.00 33 1029.1
20210618070730 66 230 0.0 0.0 0.00 0.00 0.00 35 1029.1
20210618070225 68 239 2.0 2.0 0.00 0.00 0.00 34 1028.8
20210618065721 67 173 2.0 2.0 0.00 0.00 0.00 31 1028.9
20210618065217 66 220 0.0 0.0 0.00 0.00 0.00 32 1029.0
20210618064709 65 206 2.0 2.0 0.00 0.00 0.00 35 1029.1
20210618064209 67 241 1.0 1.0 0.00 0.00 0.00 35 1029.4
20210618063705 68 204 1.0 1.0 0.00 0.00 0.00 32 1029.1
20210618063201 68 188 1.0 2.0 0.00 0.00 0.00 31 1029.3
20210618062700 68 246 0.0 0.0 0.00 0.00 0.00 33 1029.1
20210618062158 67 246 0.0 0.0 0.00 0.00 0.00 33 1029.3
20210618061654 67 162 3.0 3.0 0.00 0.00 0.00 34 1029.4
20210618061148 69 249 0.0 0.0 0.00 0.00 0.00 31 1029.3
20210618060644 68 246 0.0 0.0 0.00 0.00 0.00 31 1029.3
20210618060139 67 183 2.0 2.0 0.00 0.00 0.00 34 1029.4
20210618055637 68 230 1.0 1.0 0.00 0.00 0.00 33 1029.3
20210618055129 70 238 0.0 0.0 0.00 0.00 0.00 33 1029.3
20210618054625 69 176 2.0 2.0 0.00 0.00 0.00 30 1029.5
20210618054120 70 201 1.0 1.0 0.00 0.00 0.00 31 1029.5
20210618053615 70 218 1.0 1.0 0.00 0.00 0.00 30 1029.5
20210618053115 70 196 1.0 2.0 0.00 0.00 0.00 30 1029.3
20210618052614 71 203 1.0 1.0 0.00 0.00 0.00 29 1029.5
20210618052111 71 159 1.0 2.0 0.00 0.00 0.00 29 1029.7
20210618051609 71 185 1.0 1.0 0.00 0.00 0.00 29 1029.4
20210618051103 71 181 2.0 2.0 0.00 0.00 0.00 30 1029.4
20210618050602 71 191 2.0 2.0 0.00 0.00 0.00 30 1029.5
20210618050058 71 209 1.0 1.0 0.00 0.00 0.00 30 1029.5
20210618045552 71 237 3.0 3.0 0.00 0.00 0.00 30 1029.3
20210618045048 71 211 1.0 1.0 0.00 0.00 0.00 30 1029.5
20210618044546 71 238 3.0 3.0 0.00 0.00 0.00 30 1029.3
20210618044042 70 270 2.0 3.0 0.00 0.00 0.00 30 1029.4
20210618043541 70 178 1.0 2.0 0.00 0.00 0.00 31 1029.5
20210618043039 70 209 0.0 1.0 0.00 0.00 0.00 31 1029.4
20210618042532 70 211 1.0 1.0 0.00 0.00 0.00 31 1029.5
20210618042027 69 219 1.0 1.0 0.00 0.00 0.00 31 1029.8
20210618041523 70 211 1.0 2.0 0.00 0.00 0.00 32 1029.7
20210618041016 70 238 0.0 1.0 0.00 0.00 0.00 31 1029.7
20210618040514 70 266 0.0 0.0 0.00 0.00 0.00 31 1029.5
20210618040010 69 228 0.0 0.0 0.00 0.00 0.00 31 1029.3
20210618035505 69 170 2.0 2.0 0.00 0.00 0.00 32 1029.7
20210618034957 70 170 2.0 3.0 0.00 0.00 0.00 31 1029.7
20210618034454 70 183 1.0 1.0 0.00 0.00 0.00 31 1029.7
20210618033948 70 186 2.0 2.0 0.00 0.00 0.00 31 1029.5
20210618033446 70 231 0.0 0.0 0.00 0.00 0.00 31 1029.8
20210618032941 71 179 2.0 2.0 0.00 0.00 0.00 30 1029.5
20210618032438 70 169 2.0 2.0 0.00 0.00 0.00 31 1029.7
20210618031935 70 193 1.0 1.0 0.00 0.00 0.00 31 1029.5
20210618031431 71 232 1.0 1.0 0.00 0.00 0.00 30 1029.4
20210618030927 70 236 1.0 1.0 0.00 0.00 0.00 35 1029.4
20210618030420 70 223 1.0 1.0 0.00 0.00 0.00 31 1029.3
20210618025919 70 232 1.0 1.0 0.00 0.00 0.00 32 1029.4
20210618025415 70 214 1.0 1.0 0.00 0.00 0.00 32 1029.3
20210618024911 70 226 0.0 1.0 0.00 0.00 0.00 33 1029.4
20210618024409 71 222 0.0 1.0 0.00 0.00 0.00 31 1029.0
20210618023904 72 175 1.0 1.0 0.00 0.00 0.00 30 1029.4
20210618023354 72 207 1.0 1.0 0.00 0.00 0.00 31 1029.4
20210618022848 72 214 1.0 1.0 0.00 0.00 0.00 31 1029.4
20210618022345 73 251 1.0 1.0 0.00 0.00 0.00 29 1029.3
20210618021842 73 228 0.0 0.0 0.00 0.00 0.00 31 1029.3
20210618021336 74 243 0.0 0.0 0.00 0.00 0.00 32 1029.5
20210618020825 74 167 2.0 2.0 0.00 0.00 0.00 29 1029.5
20210618020319 74 214 0.0 1.0 0.00 0.00 0.00 31 1029.5
20210618015819 75 204 1.0 1.0 0.00 0.00 0.00 29 1029.7
20210618015316 75 203 1.0 1.0 0.00 0.00 0.00 28 1029.9
20210618014814 76 237 0.0 0.0 0.00 0.00 0.00 28 1029.5
20210618014311 76 256 0.0 0.0 0.00 0.00 0.00 26 1029.7
20210618013807 77 246 0.0 0.0 0.00 0.00 0.00 27 1029.7
20210618013300 77 212 1.0 2.0 0.00 0.00 0.00 25 1029.7
20210618012756 77 251 1.0 1.0 0.00 0.00 0.00 27 1029.4
20210618012252 77 146 3.0 3.0 0.00 0.00 0.00 25 1029.8
20210618011751 77 131 3.0 3.0 0.00 0.00 0.00 26 1029.4
20210618011247 78 182 2.0 2.0 0.00 0.00 0.00 25 1029.4
20210618010742 78 228 0.0 1.0 0.00 0.00 0.00 27 1029.5
20210618010230 78 223 1.0 2.0 0.00 0.00 0.00 25 1029.3
20210618005721 78 199 3.0 3.0 0.00 0.00 0.00 25 1029.8
20210618005220 78 233 1.0 1.0 0.00 0.00 0.00 25 1029.7
20210618004718 79 147 4.0 6.0 0.00 0.00 0.00 24 1029.4
20210618004215 80 242 3.0 3.0 0.00 0.00 0.00 24 1029.4
20210618003714 81 246 2.0 2.0 0.00 0.00 0.00 24 1028.9
20210618003213 82 242 2.0 2.0 0.00 0.00 0.00 22 1029.4
20210618002708 82 262 3.0 3.0 0.00 0.00 0.00 21 1029.1
20210618002205 82 264 1.0 1.0 0.00 0.00 0.00 24 1028.6
20210618001658 81 240 1.0 1.0 0.00 0.00 0.00 22 1029.4
20210618001153 79 249 5.0 6.0 0.00 0.00 0.00 24 1029.9
20210618000647 78 298 3.0 3.0 0.00 0.00 0.00 24 1030.0
20210618000146 78 265 1.0 2.0 0.00 0.00 0.00 25 1030.2
20210617235638 79 248 0.0 1.0 0.00 0.00 0.00 25 1030.3
20210617235137 79 245 0.0 0.0 0.00 0.00 0.00 25 1030.0
20210617234634 79 262 2.0 2.0 0.00 0.00 0.00 24 1029.9
20210617234125 79 247 1.0 1.0 0.00 0.00 0.00 24 1029.8
20210617233621 79 340 1.0 1.0 0.00 0.00 0.00 25 1029.9
20210617233121 79 214 1.0 1.0 0.00 0.00 0.00 24 1030.3
20210617232621 79 214 2.0 2.0 0.00 0.00 0.00 24 1030.2
20210617232115 79 219 0.0 1.0 0.00 0.00 0.00 24 1030.4
20210617231613 79 230 6.0 9.0 0.00 0.00 0.00 22 1030.5
20210617231111 78 172 3.0 3.0 0.00 0.00 0.00 23 1030.0
20210617230610 78 291 3.0 3.0 0.00 0.00 0.00 24 1030.4
20210617230108 78 13 5.0 9.0 0.00 0.00 0.00 24 1030.8
20210617225601 78 37 3.0 3.0 0.00 0.00 0.00 25 1030.9
20210617225058 77 243 6.0 13.0 0.00 0.00 0.00 25 1031.2
20210617224556 78 330 6.0 9.0 0.00 0.00 0.00 25 1030.9
20210617224050 80 240 2.0 2.0 0.00 0.00 0.00 22 1030.3
20210617223542 80 222 0.0 0.0 0.00 0.00 0.00 22 1030.7
20210617223036 80 231 1.0 1.0 0.00 0.00 0.00 22 1030.0
20210617222532 81 242 4.0 5.0 0.00 0.00 0.00 22 1030.0
20210617222030 82 211 3.0 5.0 0.00 0.00 0.00 21 1029.9
20210617221528 82 248 0.0 0.0 0.00 0.00 0.00 21 1029.7
20210617221024 83 355 4.0 5.0 0.00 0.00 0.00 20 1029.7
20210617220523 84 224 1.0 1.0 0.00 0.00 0.00 19 1029.5
20210617220018 84 240 2.0 2.0 0.00 0.00 0.00 19 1029.5
20210617215516 85 218 1.0 1.0 0.00 0.00 0.00 19 1029.5
20210617215014 85 220 0.0 1.0 0.00 0.00 0.00 19 1029.8
20210617214509 86 106 1.0 2.0 0.00 0.00 0.00 17 1029.7
20210617214002 84 255 3.0 3.0 0.00 0.00 0.00 17 1029.8
20210617213458 84 249 1.0 2.0 0.00 0.00 0.00 18 1029.8
20210617212953 84 50 1.0 2.0 0.00 0.00 0.00 17 1029.7
20210617212452 84 40 0.0 2.0 0.00 0.00 0.00 18 1029.8
20210617211946 85 35 2.0 2.0 0.00 0.00 0.00 18 1029.9
20210617211444 86 48 4.0 5.0 0.00 0.00 0.00 18 1029.7
20210617210942 86 97 3.0 3.0 0.00 0.00 0.00 17 1029.7
20210617210441 86 278 2.0 2.0 0.00 0.00 0.00 19 1029.7
20210617205937 86 243 1.0 1.0 0.00 0.00 0.00 19 1030.0
20210617205438 85 199 0.0 1.0 0.00 0.00 0.00 19 1030.3
20210617204933 86 254 3.0 3.0 0.00 0.00 0.00 18 1030.2
20210617204427 85 93 3.0 5.0 0.00 0.00 0.00 16 1030.0
20210617203923 86 42 2.0 5.0 0.00 0.00 0.00 17 1030.5
20210617203408 87 196 3.0 5.0 0.00 0.00 0.00 16 1029.8
20210617202906 86 253 1.0 1.0 0.00 0.00 0.00 15 1030.2
20210617202358 86 74 3.0 5.0 0.00 0.00 0.00 16 1029.8
20210617201851 86 113 3.0 5.0 0.00 0.00 0.00 16 1030.0
20210617201345 87 33 4.0 5.0 0.00 0.00 0.00 15 1030.2
20210617200838 87 136 2.0 2.0 0.00 0.00 0.00 17 1030.2
20210617200327 88 160 4.0 6.0 0.00 0.00 0.00 16 1030.3
20210617195825 87 220 2.0 3.0 0.00 0.00 0.00 18 1030.0
20210617195321 88 234 4.0 5.0 0.00 0.00 0.00 17 1030.0
20210617194819 87 204 1.0 2.0 0.00 0.00 0.00 16 1030.2
20210617194309 87 259 1.0 1.0 0.00 0.00 0.00 17 1030.2
20210617193808 89 217 4.0 6.0 0.00 0.00 0.00 16 1030.4
20210617193306 89 222 1.0 2.0 0.00 0.00 0.00 15 1030.3
20210617192803 89 140 4.0 5.0 0.00 0.00 0.00 17 1030.2
20210617192305 87 53 1.0 2.0 0.00 0.00 0.00 17 1030.0
20210617191753 86 118 1.0 2.0 0.00 0.00 0.00 17 1030.4
20210617191249 86 164 3.0 3.0 0.00 0.00 0.00 17 1030.4
20210617190739 87 27 3.0 5.0 0.00 0.00 0.00 17 1030.5
20210617190235 87 91 3.0 3.0 0.00 0.00 0.00 18 1030.8
20210617185732 86 29 3.0 3.0 0.00 0.00 0.00 17 1030.3
20210617185230 85 257 1.0 1.0 0.00 0.00 0.00 17 1030.7
20210617184724 85 208 1.0 1.0 0.00 0.00 0.00 18 1030.7
20210617184220 86 86 2.0 2.0 0.00 0.00 0.00 17 1030.7
20210617183716 86 17 3.0 3.0 0.00 0.00 0.00 16 1030.8
20210617183209 86 139 4.0 5.0 0.00 0.00 0.00 17 1030.8
20210617182708 85 1 1.0 2.0 0.00 0.00 0.00 17 1030.8
20210617182207 87 249 1.0 2.0 0.00 0.00 0.00 16 1030.7
20210617181703 87 100 5.0 7.0 0.00 0.00 0.00 16 1030.7
20210617181157 87 347 2.0 3.0 0.00 0.00 0.00 15 1030.7
20210617180650 86 193 5.0 6.0 0.00 0.00 0.00 17 1030.8
20210617180149 88 107 3.0 5.0 0.00 0.00 0.00 17 1030.5
20210617175644 88 195 3.0 5.0 0.00 0.00 0.00 16 1030.7
20210617175142 88 16 3.0 6.0 0.00 0.00 0.00 17 1030.8
20210617174639 87 208 1.0 1.0 0.00 0.00 0.00 17 1030.7
20210617174133 89 228 1.0 1.0 0.00 0.00 0.00 16 1030.8
20210617173630 89 133 5.0 7.0 0.00 0.00 0.00 15 1030.5
20210617173126 88 180 2.0 2.0 0.00 0.00 0.00 17 1030.9
20210617172623 87 201 3.0 3.0 0.00 0.00 0.00 16 1030.8
20210617172118 87 79 3.0 5.0 0.00 0.00 0.00 15 1031.0
20210617171616 86 46 1.0 2.0 0.00 0.00 0.00 16 1030.9
20210617171112 87 0 4.0 6.0 0.00 0.00 0.00 15 1031.0
20210617170611 89 6 1.0 2.0 0.00 0.00 0.00 15 1031.0
20210617170105 88 30 2.0 2.0 0.00 0.00 0.00 17 1031.0
20210617165601 86 310 1.0 3.0 0.00 0.00 0.00 19 1030.8
20210617165059 87 349 3.0 3.0 0.00 0.00 0.00 15 1031.2
20210617164555 86 111 2.0 3.0 0.00 0.00 0.00 17 1031.0
20210617164049 85 311 3.0 5.0 0.00 0.00 0.00 17 1031.2
20210617163550 85 3 7.0 8.0 0.00 0.00 0.00 17 1031.3
20210617163043 85 69 2.0 2.0 0.00 0.00 0.00 17 1031.4
20210617162542 84 30 3.0 6.0 0.00 0.00 0.00 17 1031.5
20210617162036 84 21 5.0 7.0 0.00 0.00 0.00 17 1031.3
20210617161531 85 27 4.0 5.0 0.00 0.00 0.00 16 1031.4
20210617161026 85 315 1.0 1.0 0.00 0.00 0.00 16 1031.2
20210617160525 85 310 2.0 3.0 0.00 0.00 0.00 18 1031.4
20210617160024 84 88 2.0 2.0 0.00 0.00 0.00 18 1031.7
20210617155524 84 294 1.0 1.0 0.00 0.00 0.00 18 1031.4
20210617155017 83 306 3.0 3.0 0.00 0.00 0.00 20 1031.4
20210617154515 84 94 1.0 2.0 0.00 0.00 0.00 21 1031.7
20210617154013 83 186 1.0 1.0 0.00 0.00 0.00 20 1031.7
20210617153509 83 331 4.0 5.0 0.00 0.00 0.00 24 1031.5
20210617153004 83 253 1.0 1.0 0.00 0.00 0.00 25 1031.8
20210617152504 82 85 2.0 2.0 0.00 0.00 0.00 25 1031.7
20210617151958 82 313 2.0 2.0 0.00 0.00 0.00 24 1031.7
20210617151452 82 28 5.0 6.0 0.00 0.00 0.00 25 1031.8
20210617150950 81 264 2.0 2.0 0.00 0.00 0.00 23 1031.9
20210617150449 81 27 1.0 1.0 0.00 0.00 0.00 24 1031.9
20210617145944 80 313 1.0 1.0 0.00 0.00 0.00 26 1031.8
20210617145438 81 41 1.0 1.0 0.00 0.00 0.00 22 1031.8
20210617144929 81 350 4.0 5.0 0.00 0.00 0.00 22 1031.9
20210617144425 81 291 3.0 3.0 0.00 0.00 0.00 26 1031.8
20210617143919 80 290 1.0 1.0 0.00 0.00 0.00 25 1031.5
20210617143415 80 271 0.0 0.0 0.00 0.00 0.00 29 1031.7
20210617142911 78 272 0.0 0.0 0.00 0.00 0.00 37 1031.8
20210617142410 78 237 1.0 2.0 0.00 0.00 0.00 26 1031.7
20210617141906 77 196 0.0 0.0 0.00 0.00 0.00 37 1031.9
20210617141358 76 303 0.0 1.0 0.00 0.00 0.00 41 1031.5
20210617140856 75 223 0.0 0.0 0.00 0.00 0.00 43 1031.9
20210617140353 73 223 0.0 0.0 0.00 0.00 0.00 44 1031.9
20210617135852 72 243 0.0 0.0 0.00 0.00 0.00 47 1031.8
20210617135346 71 249 0.0 0.0 0.00 0.00 0.00 47 1031.7
20210617134842 69 233 0.0 0.0 0.00 0.00 0.00 46 1031.7
20210617134334 69 237 0.0 0.0 0.00 0.00 0.00 46 1031.9
20210617133831 67 254 0.0 0.0 0.00 0.00 0.00 47 1031.9
20210617133326 66 250 0.0 0.0 0.00 0.00 0.00 48 1031.9
20210617132823 66 225 0.0 0.0 0.00 0.00 0.00 52 1031.5
20210617132316 65 203 1.0 1.0 0.00 0.00 0.00 50 1031.5
20210617131813 64 206 1.0 1.0 0.00 0.00 0.00 47 1031.8
20210617131310 64 212 0.0 0.0 0.00 0.00 0.00 43 1031.7
20210617130804 62 264 0.0 0.0 0.00 0.00 0.00 46 1032.1
20210617130257 62 225 0.0 0.0 0.00 0.00 0.00 49 1031.7
20210617125752 60 238 0.0 0.0 0.00 0.00 0.00 49 1031.9
20210617125251 58 240 0.0 0.0 0.00 0.00 0.00 48 1032.1
20210617124749 58 240 0.0 0.0 0.00 0.00 0.00 49 1032.2
20210617124247 58 182 0.0 1.0 0.00 0.00 0.00 48 1032.1
20210617123743 59 264 1.0 1.0 0.00 0.00 0.00 47 1032.2
20210617123241 58 201 1.0 1.0 0.00 0.00 0.00 46 1032.1
20210617122737 58 266 0.0 1.0 0.00 0.00 0.00 43 1031.7
20210617122235 57 231 0.0 0.0 0.00 0.00 0.00 46 1031.7
20210617121735 57 193 1.0 1.0 0.00 0.00 0.00 47 1031.8
20210617121230 55 227 0.0 1.0 0.00 0.00 0.00 47 1031.8
20210617120729 55 253 0.0 0.0 0.00 0.00 0.00 47 1031.9
20210617120225 55 250 0.0 0.0 0.00 0.00 0.00 47 1031.8
20210617115722 54 204 1.0 1.0 0.00 0.00 0.00 47 1031.7
20210617115217 55 264 0.0 1.0 0.00 0.00 0.00 47 1031.9
20210617114716 55 238 0.0 0.0 0.00 0.00 0.00 46 1031.5
20210617114212 55 261 0.0 0.0 0.00 0.00 0.00 46 1031.5
20210617113707 55 215 0.0 1.0 0.00 0.00 0.00 45 1031.4
20210617113206 55 249 0.0 0.0 0.00 0.00 0.00 46 1031.8
20210617112653 56 249 0.0 0.0 0.00 0.00 0.00 46 1031.5
20210617112146 56 238 0.0 0.0 0.00 0.00 0.00 45 1031.4
20210617111645 56 235 0.0 0.0 0.00 0.00 0.00 45 1031.5
20210617111141 57 252 0.0 0.0 0.00 0.00 0.00 45 1031.7
20210617110641 57 253 0.0 0.0 0.00 0.00 0.00 43 1031.7
20210617110136 57 206 0.0 0.0 0.00 0.00 0.00 42 1031.5
20210617105629 57 242 0.0 1.0 0.00 0.00 0.00 43 1031.5
20210617105128 58 199 1.0 2.0 0.00 0.00 0.00 40 1031.4
20210617104621 58 246 0.0 0.0 0.00 0.00 0.00 41 1031.4
20210617104116 60 233 0.0 0.0 0.00 0.00 0.00 41 1031.4
20210617103611 59 225 0.0 0.0 0.00 0.00 0.00 41 1031.4
20210617103109 59 252 0.0 0.0 0.00 0.00 0.00 40 1031.4
20210617102607 60 204 1.0 1.0 0.00 0.00 0.00 37 1030.9
20210617102105 60 239 0.0 0.0 0.00 0.00 0.00 39 1031.3
20210617101601 63 252 0.0 0.0 0.00 0.00 0.00 36 1031.2
20210617101056 62 210 1.0 1.0 0.00 0.00 0.00 35 1031.3
20210617100550 60 219 0.0 0.0 0.00 0.00 0.00 38 1031.3